Location: Easthampton
(42.2676°N, 72.6690°W)
Time: 23:04:06
(UTC+00:00)

AO-91 - Pass Details

Date: 03 April 2023
Orbit: 446 x 775 km, 97.6° (Epoch: 28 May)

Event Time Altitude Azimuth Distance (km) Brightness Sun altitude
Rises 04:11:33 0° 360° (N) 3,232 ? -41.6°
Reaches altitude 10° 04:14:12 10° 347° (NNW) 2,324 ? -41.7°
Enters shadow 04:15:28 16° 337° (NNW) 1,956 ? -41.7°
